Location: T�chigga el Be�da
(16.4766°N, 9.3887°W)
Time: 08:30:14
(UTC+00:00)

Cosmos 1812 - Pass Details

Date: 27 February 2020
Orbit: 517 x 522 km, 82.5° (Epoch: 07 April)

Event Time Altitude Azimuth Distance (km) Brightness Sun altitude
Rises 18:59:12 0° 352° (N) 2,641 6.3 -4.5°
Reaches altitude 10° 19:01:21 10° 350° (N) 1,752 5.4 -5.0°
Maximum altitude 19:05:10 70° 266° (W) 555 3.1 -5.9°
Drops below altitude 10° 19:08:59 10° 183° (S) 1,746 5.5 -6.8°
Sets 19:11:06 0° 180° (S) 2,631 6.4 -7.3°
